Location: Beekmeers
(50.8953°N, 3.6968°E)
Time: 14:49:44
(UTC+00:00)

Cosmos 1782 Rocket - Pass Details

Date: 23 May 2024
Orbit: 602 x 629 km, 82.5° (Epoch: 16 June)

Event Time Altitude Azimuth Distance (km) Brightness Sun altitude
Rises 01:49:45 0° 346° (NNW) 2,902 7.7 -13.1°
Reaches altitude 10° 01:52:01 10° 343° (NNW) 1,987 6.8 -12.9°
Maximum altitude 01:56:21 59° 264° (W) 713 3.7 -12.6°
Enters shadow 01:59:42 16° 188° (S) 1,607 5.1 -12.3°
